Theta_e
295 296 296 296 296 295 295 295 295 296 297 298 298 297 297 296 296 295 296 295 294 294 295 295 295 295 296 296 293 293 291 292 292 290 290 294 290 292 291 292 292 290 287 286 286 288 292 293 291 291 292 293 292 291
294 295 295 296 296 296 296 296 296 296 297 297 297 296 295 296 298 297 297 297 295 295 295 295 295 295 295 295 296 292 295 293 293 292 291 292 288 290 289 286 292 289 290 287 290 289 293 292 292 292 292 292 292 292
292 293 294 294 295 295 295 296 296 296 296 296 296 295 295 296 296 296 297 297 295 295 295 295 295 296 295 294 294 294 293 294 294 294 295 292 290 292 287 289 289 290 292 291 290 291 291 292 292 292 292 291 291 291
292 292 293 293 293 294 294 295 295 295 296 296 296 296 295 295 296 295 296 296 295 295 295 295 295 294 295 295 295 294 295 294 294 294 294 293 289 293 292 292 291 292 291 290 291 292 292 292 292 292 292 291 291 291
292 292 292 292 293 293 292 293 293 294 294 295 296 296 296 295 296 296 295 295 295 294 296 295 295 295 295 295 295 294 294 294 294 293 294 292 293 293 293 293 293 293 292 292 292 292 292 292 292 292 291 291 291 291
291 291 292 292 292 291 291 292 292 291 292 292 293 294 295 295 296 296 296 295 295 295 295 295 294 294 294 294 294 295 294 293 293 294 293 293 293 293 294 293 293 293 292 293 292 292 292 292 292 292 291 291 291 290
291 291 291 292 292 292 291 291 291 291 291 291 292 293 292 294 294 295 295 295 295 296 295 295 293 293 294 293 293 293 294 294 293 293 294 294 293 293 293 293 293 293 292 292 292 292 291 292 291 291 291 291 290 290
290 290 290 291 291 291 291 290 290 291 291 291 292 291 292 292 294 295 294 294 294 295 294 294 294 290 292 292 292 292 293 293 293 293 293 293 293 293 293 293 293 293 293 292 292 292 292 292 291 291 290 290 289 288
290 290 290 290 290 290 290 290 290 290 291 292 292 292 292 292 293 293 294 294 294 294 294 293 292 290 290 291 291 291 291 292 292 292 292 292 291 292 291 292 292 292 292 292 292 292 291 291 290 289 288 287 286 285
289 288 288 288 288 289 289 289 290 290 290 291 291 292 293 292 292 292 294 294 294 294 293 294 293 291 289 290 290 290 291 290 289 290 291 291 291 291 291 291 291 292 292 291 290 289 288 287 286 286 285 283 282 281
288 288 288 287 287 288 288 289 289 289 290 290 291 292 292 292 293 293 294 294 294 294 293 293 292 287 289 288 290 291 289 288 290 285 288 284 285 291 291 291 292 291 291 289 287 286 285 284 282 281 281 280 279 278
287 287 287 287 287 288 287 287 288 289 289 290 290 290 291 291 292 293 293 291 293 293 291 289 292 293 289 290 290 289 291 291 291 286 288 284 287 291 291 290 289 288 286 284 283 282 281 280 279 278 277 277 276 275
286 286 286 286 287 287 287 287 287 287 288 288 289 289 290 291 292 292 292 288 285 286 289 290 289 290 288 289 290 290 290 290 286 288 285 283 289 288 288 287 285 283 282 281 279 279 278 278 277 276 275 274 273 273
285 285 286 286 286 287 287 287 287 287 288 288 289 289 290 290 290 290 286 284 290 290 289 290 290 287 289 289 291 290 289 284 287 286 283 281 289 288 285 284 281 280 279 278 278 277 276 275 274 273 273 272 272 272
284 285 285 285 285 286 286 286 287 287 287 288 289 288 289 287 287 287 288 288 289 290 289 289 289 289 288 290 291 288 285 287 284 283 282 286 286 285 282 280 279 277 276 275 275 273 273 272 272 271 270 270 270 270
283 283 285 285 285 286 286 286 286 287 288 287 288 287 282 281 280 282 281 284 286 288 289 288 288 289 289 290 288 287 286 283 282 280 279 281 280 279 278 276 274 273 273 272 272 272 271 271 270 270 269 269 268 267
281 284 284 284 285 285 286 286 286 287 287 286 281 281 282 284 284 283 282 283 284 286 286 287 288 288 288 289 288 285 282 279 273 273 274 276 277 276 274 273 272 271 271 271 271 271 270 269 269 268 268 267 266 265
281 282 284 284 284 285 285 286 285 282 280 276 279 275 276 277 276 277 278 280 282 284 286 287 286 286 287 287 285 279 271 269 271 272 272 272 272 271 272 272 271 271 270 270 270 269 269 268 267 266 265 265 264 263
280 281 283 285 285 284 284 281 281 279 272 272 272 273 274 274 274 274 275 277 278 281 281 284 286 286 286 278 276 272 271 272 270 268 268 268 269 271 271 270 270 269 268 268 268 268 267 266 266 265 265 264 264 263
280 280 282 283 284 284 279 276 277 275 272 270 271 270 271 271 271 273 274 274 278 279 281 282 278 270 269 269 269 269 270 272 272 268 267 268 268 268 268 268 268 268 268 267 267 266 266 266 265 265 264 264 264 263
278 279 281 282 282 281 276 272 271 269 269 269 268 269 269 270 270 271 272 275 277 273 274 266 265 265 266 266 267 267 269 270 271 271 271 269 268 267 267 267 266 266 266 266 266 266 265 265 265 265 264 264 264 264
279 280 280 281 279 275 272 271 269 269 269 268 269 269 268 265 267 266 269 273 267 262 264 264 264 265 267 268 268 268 269 269 270 270 270 269 268 267 266 266 265 265 266 266 265 265 265 265 265 264 264 264 264 264
279 280 279 277 275 272 268 269 269 269 269 266 269 267 265 264 265 268 269 265 263 263 263 264 265 265 266 266 267 267 268 267 267 267 267 267 266 266 265 265 266 266 265 265 265 264 265 264 264 264 264 264 264 264
278 276 271 268 269 266 268 267 268 268 268 266 270 269 264 263 266 269 269 264 263 262 263 263 263 264 264 265 265 265 265 266 265 265 265 265 265 265 265 266 265 265 265 264 264 264 264 264 264 264 264 264 264 264
272 263 263 261 264 266 268 268 268 269 267 265 269 268 262 262 269 270 267 263 262 262 262 263 263 263 264 264 264 264 265 265 265 265 265 265 266 265 265 265 265 264 264 264 264 264 264 264 264 263 263 263 264 264
260 256 257 254 258 261 262 267 264 264 265 266 262 260 260 264 268 264 261 261 261 261 262 262 263 263 264 264 264 264 264 265 265 265 265 265 265 265 265 265 265 264 264 264 264 264 264 264 263 263 263 264 264 264
260 254 257 257 257 257 257 259 260 262 263 262 260 262 262 264 263 260 261 261 261 261 262 262 262 263 263 264 265 265 265 265 265 265 265 265 264 264 264 263 263 263 263 264 264 264 264 263 263 264 264 264 264 264
255 255 253 256 257 257 252 253 255 256 256 256 255 258 261 260 258 260 261 261 262 263 263 263 263 264 264 265 265 265 265 265 265 265 264 264 264 264 264 264 264 264 264 264 264 264 263 263 264 264 265 265 265 265
256 256 255 253 256 256 252 252 252 254 254 254 255 259 257 260 260 261 261 262 262 263 263 263 264 264 264 265 265 265 265 265 265 265 264 264 264 264 263 263 263 263 263 263 264 264 264 265 265 265 265 265 265 265
255 255 257 259 260 257 254 255 255 255 255 255 256 259 260 261 260 261 261 262 263 263 263 263 264 264 264 264 264 264 264 264 264 264 264 264 264 264 264 264 264 264 264 265 265 265 265 265 265 264 264 265 264 264
256 256 256 257 255 256 255 255 256 256 256 257 257 259 260 261 261 261 261 262 262 263 263 263 263 263 264 264 264 263 263 263 263 263 263 263 264 264 264 264 264 265 265 265 265 265 265 265 265 265 265 265 265 264
256 255 254 255 255 256 256 256 256 257 257 257 258 259 260 262 261 261 260 261 262 262 262 262 263 263 263 263 262 262 262 262 263 263 263 264 264 265 265 265 265 265 265 265 265 265 264 264 264 264 264 264 264 264
257 256 256 256 258 257 256 256 257 257 258 258 258 259 259 260 260 260 260 261 261 261 261 261 261 261 261 261 262 262 263 263 264 264 264 264 264 264 264 264 264 264 264 264 264 263 263 263 262 262 262 262 262 262
Wind_Speed
26 25 25 25 26 25 23 22 23 26 22 25 23 20 22 21 22 22 23 18 19 7 10 11 16 11 12 16 4 11 6 2 3 3 4 4 3 5 4 5 4 6 5 4 2 3 10 3 5 6 4 2 6 12
23 21 25 25 24 24 27 26 24 23 21 25 23 22 23 22 23 28 24 28 24 15 8 14 24 20 17 20 18 24 4 8 11 3 2 2 2 2 4 3 5 3 7 4 8 5 4 10 13 14 16 17 24 23
31 32 24 24 19 21 25 23 25 27 24 24 25 26 25 26 27 26 27 24 19 19 16 25 27 29 26 23 18 13 12 10 10 11 6 3 4 3 4 6 4 5 17 7 1 8 16 33 32 31 33 32 28 23
28 25 30 30 28 24 20 19 22 25 25 26 27 27 27 28 29 27 30 28 28 9 5 11 13 27 24 31 32 29 21 13 17 14 6 3 3 10 6 8 6 12 3 9 14 16 26 31 33 35 36 34 33 31
26 25 25 26 25 24 25 25 26 23 21 22 25 26 28 26 27 30 30 32 40 29 4 5 14 21 19 25 30 38 34 25 12 7 4 5 6 5 7 2 8 23 21 14 13 19 22 24 29 27 24 24 20 24
26 27 27 26 25 24 23 22 22 22 23 24 24 23 25 25 25 24 21 34 36 32 7 3 11 15 21 28 26 29 33 32 26 13 8 9 23 10 5 7 19 34 31 30 24 36 36 34 32 33 31 31 29 27
23 24 24 24 24 24 22 23 24 24 24 25 24 23 24 23 24 26 6 9 23 34 10 3 3 11 19 22 28 24 25 20 18 17 11 14 9 10 5 11 23 26 28 34 41 37 31 36 30 31 28 26 26 26
21 21 22 22 21 20 21 21 21 21 25 23 23 23 22 24 23 28 32 25 11 26 9 3 2 4 21 11 8 19 13 19 16 13 9 10 10 13 9 18 27 31 35 37 38 34 31 32 29 26 25 25 25 25
20 18 17 15 16 17 18 18 18 18 19 19 19 18 19 24 26 27 22 26 31 19 4 4 5 3 15 7 8 12 11 4 9 5 7 8 6 7 13 24 27 37 31 32 31 28 25 25 24 23 21 22 21 22
15 14 14 15 17 20 20 18 17 15 15 14 14 10 8 15 23 15 12 12 20 19 16 4 13 6 18 11 8 8 7 3 3 7 6 6 11 31 32 38 37 30 22 23 18 20 21 19 17 18 20 20 19 19
16 15 14 14 16 18 22 21 17 14 13 12 9 8 7 7 20 13 10 10 9 4 10 13 23 5 12 4 4 11 4 3 4 5 8 4 5 13 34 39 35 33 29 25 21 19 17 16 16 16 17 17 16 16
13 15 17 17 17 16 16 16 17 17 15 8 5 5 10 14 9 6 6 4 4 6 9 5 11 22 10 9 4 7 4 6 5 3 3 4 4 20 22 21 22 22 21 18 15 15 13 12 11 12 13 14 15 16
13 14 14 14 15 16 17 16 16 16 14 15 8 7 7 7 10 8 10 4 3 4 7 9 4 11 8 10 3 5 8 6 8 5 4 4 8 14 17 16 15 15 14 12 10 9 9 9 10 11 12 14 16 16
12 13 14 15 15 16 17 18 18 17 14 9 8 6 7 6 5 3 4 4 7 10 23 21 6 4 8 6 3 4 3 4 5 4 7 4 18 15 15 15 14 13 12 11 9 9 9 9 9 10 12 14 17 18
7 9 12 14 15 16 19 20 21 20 15 8 6 6 7 5 2 2 4 4 6 12 21 8 4 7 2 4 4 3 4 4 6 5 4 9 14 14 14 13 13 12 11 10 8 7 7 7 9 10 13 15 18 20
8 11 12 17 19 20 19 19 20 23 7 10 8 2 1 3 2 3 2 1 8 16 12 6 3 3 5 3 7 7 7 7 5 4 8 12 13 13 13 13 12 11 9 7 5 5 7 9 11 12 14 16 18 19
11 5 10 10 14 19 18 20 17 11 8 7 3 4 3 2 1 4 3 5 8 10 3 3 5 7 3 4 4 4 5 3 3 10 11 10 12 14 14 12 10 9 7 4 3 4 7 10 12 14 14 14 15 14
9 6 8 7 12 13 17 16 4 4 3 2 2 3 4 4 3 2 5 7 11 5 4 3 3 5 5 4 3 2 5 9 10 9 10 12 13 14 12 11 9 6 4 2 3 5 7 9 10 11 12 12 10 9
6 6 1 6 8 7 7 4 3 2 2 4 4 4 3 2 2 4 4 7 11 7 5 3 3 2 1 3 3 4 5 7 8 9 11 12 11 11 10 9 7 5 3 1 2 3 4 5 6 8 9 9 9 9
8 9 9 5 3 2 4 4 4 4 2 2 4 3 3 1 1 2 2 4 5 3 3 2 2 2 3 1 2 3 5 7 13 16 12 11 11 9 8 7 6 5 3 2 2 2 2 4 5 7 8 8 9 9
9 10 3 5 3 5 5 4 6 4 3 4 3 3 1 2 3 4 3 1 2 4 2 4 4 3 4 5 6 8 10 11 9 7 9 13 11 9 7 7 6 5 5 5 3 1 2 3 4 5 6 7 7 8
6 7 5 4 4 4 6 6 5 3 3 3 3 3 3 2 4 5 5 3 5 3 3 2 2 5 6 6 7 8 9 7 5 5 6 7 12 11 9 7 7 7 5 3 1 2 3 3 4 5 5 6 6 7
10 7 4 4 4 5 3 4 3 3 2 0 2 2 2 2 4 4 2 4 4 5 4 1 2 2 3 4 5 5 5 5 4 4 7 8 9 9 9 8 5 4 2 1 2 2 3 3 3 4 5 6 7 7
8 5 6 5 7 2 2 4 3 3 3 3 2 2 2 3 6 1 2 3 6 6 4 2 3 4 4 4 4 5 5 6 7 8 10 10 11 10 7 4 2 1 1 2 2 2 1 1 2 4 5 7 8 9
4 9 7 6 7 4 4 2 3 2 3 3 1 2 2 4 1 2 2 3 8 7 4 2 3 2 2 3 5 6 9 10 11 11 10 7 6 5 3 1 0 2 2 3 2 2 1 2 4 6 7 8 9 10
8 9 6 4 5 3 3 2 3 3 2 2 3 1 3 1 2 1 2 9 7 7 4 3 4 4 5 7 9 11 11 10 8 7 5 3 1 1 2 2 3 3 4 4 4 3 4 5 7 8 9 10 11 12
5 4 7 7 3 2 3 3 1 2 4 3 3 4 2 3 2 2 6 9 7 7 2 5 7 7 10 10 10 10 8 6 5 4 4 2 1 2 3 4 4 4 4 4 5 6 6 8 9 10 11 11 12 13
4 9 3 9 5 6 3 2 3 3 2 4 2 4 2 2 2 6 6 11 10 4 4 7 8 10 9 8 6 5 4 4 3 3 3 3 3 2 2 3 3 4 4 5 6 7 8 10 11 12 14 14 14 15
5 12 6 4 3 5 5 2 1 2 3 2 1 2 1 3 9 9 8 8 6 4 5 6 7 6 5 4 4 4 3 3 3 4 4 5 4 3 2 2 2 4 6 7 8 9 11 12 13 16 17 19 21 23
8 13 5 5 3 3 3 3 1 3 2 2 1 3 5 8 16 19 12 5 5 4 4 3 3 3 3 3 3 3 3 3 4 5 6 5 6 5 6 7 9 10 10 11 11 11 13 16 18 20 24 26 28 30
9 9 4 3 2 3 5 5 3 4 3 3 4 4 3 3 8 24 25 13 5 4 4 4 3 2 2 3 3 3 4 5 7 7 8 8 9 9 9 9 10 12 14 16 18 21 24 26 28 30 31 31 31 30
8 6 4 4 3 5 6 6 2 2 3 3 4 3 3 4 5 14 26 19 10 6 6 5 4 5 5 4 6 8 8 9 11 12 13 14 14 15 17 18 19 22 24 26 28 29 30 31 32 31 32 32 31 30
5 6 4 4 2 3 8 8 2 2 4 3 5 5 5 5 5 16 17 19 19 18 17 18 19 18 15 9 9 13 17 18 20 21 22 23 23 24 25 26 27 28 29 29 30 30 31 31 31 31 30 30 30 29
Wind_Direction
247 241 234 234 232 228 232 231 235 235 238 230 228 230 219 214 214 218 225 223 207 210 240 214 211 190 169 180 139 140 104 207 157 173 169 210 192 210 204 218 197 161 174 212 178 240 274 172 123 167 210 181 208 218
246 246 246 242 237 237 231 228 233 238 233 228 231 239 248 242 229 223 219 226 217 231 242 221 221 209 202 199 190 167 170 149 172 164 196 185 208 219 161 226 175 253 202 195 187 200 208 213 222 235 259 273 286 275
244 240 242 241 242 243 242 238 233 230 231 237 235 234 236 238 238 233 227 232 226 237 260 237 227 229 222 211 203 183 217 187 190 188 181 193 214 148 189 230 251 259 237 236 92 247 254 265 265 269 276 282 283 276
238 232 234 240 241 241 244 245 243 240 237 236 237 237 239 234 229 234 230 232 230 223 232 250 245 234 245 232 222 216 222 216 223 211 224 194 196 212 231 238 211 230 184 234 246 253 257 262 264 269 272 277 277 279
238 236 235 233 233 235 237 241 244 247 252 249 241 240 238 237 238 234 238 243 231 207 212 240 251 244 240 222 224 225 224 223 211 182 206 220 228 244 245 271 240 237 240 240 244 244 249 252 263 271 270 264 271 279
235 237 238 234 235 240 240 243 246 245 243 247 250 247 242 244 241 237 235 235 232 212 230 224 240 225 229 221 215 222 224 221 217 211 209 228 240 220 227 233 242 248 248 246 251 258 261 265 270 278 277 277 278 277
239 241 242 241 235 235 238 241 244 246 246 244 243 248 243 244 235 227 246 224 219 216 217 217 193 204 210 204 214 217 219 212 212 224 227 232 227 213 237 249 249 247 245 251 257 259 263 264 267 273 273 274 274 273
235 236 236 239 239 237 242 248 249 249 243 245 243 244 243 235 241 235 243 241 166 190 210 233 155 160 184 179 195 208 203 208 211 222 228 228 246 234 246 246 253 257 255 257 260 260 263 270 269 266 269 272 273 272
227 233 232 230 235 240 243 247 245 244 243 238 239 241 241 230 228 234 238 242 245 226 223 200 156 208 171 168 168 172 193 196 212 212 226 200 223 227 238 250 250 251 249 255 263 260 256 257 264 266 266 264 262 263
208 222 229 234 239 239 245 247 243 239 240 238 228 217 223 221 222 219 217 215 206 203 208 191 180 183 170 165 172 158 187 210 198 219 181 204 235 241 250 255 259 265 260 252 246 251 255 258 262 265 268 269 264 260
213 225 241 252 248 235 228 233 232 222 223 213 203 214 214 193 184 195 202 199 184 211 189 191 195 151 180 149 165 200 178 195 202 242 176 221 232 236 247 250 254 255 258 257 256 258 263 269 270 268 266 266 263 259
236 241 244 247 236 227 221 218 212 215 217 214 187 248 200 193 207 246 179 201 194 207 182 171 193 200 162 161 158 175 199 187 218 154 156 236 215 241 245 233 231 238 245 250 254 257 259 261 264 264 264 264 263 264
239 239 237 235 232 229 221 216 218 218 224 226 219 199 192 224 227 214 180 219 188 140 148 149 148 151 151 178 183 177 202 204 117 183 219 220 203 222 221 223 229 237 240 242 244 252 258 262 260 254 254 258 263 268
247 244 240 238 235 229 227 219 217 213 207 210 207 206 214 197 223 208 201 172 169 165 172 170 135 167 170 178 182 211 156 121 195 205 221 219 219 218 227 231 230 225 218 222 230 239 244 243 248 257 263 271 278 284
255 256 253 251 245 235 231 229 223 217 211 214 214 220 200 197 216 110 158 143 172 192 154 145 143 181 171 204 186 121 176 209 207 214 210 193 198 206 212 213 210 209 209 211 217 225 240 257 271 282 288 292 293 292
294 277 251 246 241 235 233 225 222 218 212 190 233 249 182 83 71 20 356 274 184 166 148 128 162 202 207 202 187 189 175 209 226 207 157 168 178 187 192 191 188 193 195 194 202 246 279 290 299 304 307 303 301 301
336 233 238 258 239 220 222 222 218 213 215 188 161 172 128 66 106 137 191 213 196 180 186 158 205 215 141 208 203 175 203 210 135 131 151 164 171 172 171 174 177 179 183 202 244 288 304 313 314 314 317 317 316 316
323 335 303 254 221 207 210 212 196 195 123 113 177 118 136 160 147 199 184 184 172 225 206 207 132 185 197 198 215 209 106 108 114 137 144 152 162 164 162 161 166 181 202 236 301 318 321 323 326 330 333 331 328 322
285 284 141 176 224 182 149 132 158 118 68 111 106 128 137 136 207 222 231 207 207 211 272 204 219 218 179 39 31 52 125 145 154 144 146 149 155 159 165 169 177 185 194 263 334 337 340 343 344 343 343 342 340 338
244 256 248 232 189 63 84 69 104 110 98 120 100 93 111 118 94 115 106 210 176 235 221 252 38 37 51 64 92 109 144 144 149 139 149 160 165 172 179 180 178 177 169 128 95 74 31 3 359 354 348 346 345 341
239 240 228 178 134 83 85 64 56 70 84 83 88 76 50 50 32 40 63 108 95 35 51 51 44 50 89 106 115 124 127 138 142 153 173 176 179 181 187 181 179 161 138 122 112 77 352 346 347 346 349 352 350 344
165 156 133 134 88 78 80 61 89 83 84 86 60 63 37 39 30 4 358 44 60 39 19 20 95 112 112 106 109 123 126 132 134 141 154 163 174 179 177 170 163 136 122 123 170 288 305 320 328 336 344 349 348 350
131 125 84 69 84 55 33 60 71 42 69 315 102 69 22 37 1 9 74 51 44 9 355 29 119 129 129 127 126 132 134 124 127 138 136 139 149 142 142 145 140 128 127 178 269 283 290 308 332 345 350 351 351 352
100 65 42 48 41 68 56 40 49 64 54 27 46 82 32 1 351 5 66 42 5 3 19 89 121 108 116 123 116 123 131 129 136 136 128 133 132 130 136 135 129 157 243 261 269 260 267 316 331 335 339 344 345 346
88 14 22 15 23 28 48 36 11 45 70 5 59 94 12 346 38 49 41 17 358 1 9 80 104 98 125 127 125 127 129 129 135 142 135 131 120 117 109 101 295 267 269 255 249 242 269 309 322 327 332 335 337 339
69 10 42 340 3 48 354 46 34 27 6 74 48 352 352 350 66 34 341 344 354 4 30 73 63 71 101 113 122 126 126 123 123 116 110 96 62 13 302 291 292 296 284 266 249 260 288 304 312 318 324 326 328 328
58 346 9 28 15 347 44 39 23 22 46 32 352 359 24 68 48 302 355 8 1 358 68 111 101 98 110 111 113 115 115 110 86 74 65 48 356 310 297 296 297 292 275 267 259 267 284 297 305 310 314 317 319 320
73 27 43 340 17 32 108 38 46 47 9 351 329 33 91 86 234 344 351 357 2 29 108 123 114 118 116 109 102 94 91 92 81 55 39 37 18 349 327 308 289 285 280 274 277 284 293 299 305 310 312 314 318 317
37 356 353 353 35 53 44 70 133 33 357 11 45 56 42 51 4 354 349 2 25 65 120 126 115 120 124 108 93 81 71 55 36 29 11 3 351 341 328 311 301 297 294 293 292 295 298 300 304 306 308 310 312 312
2 358 355 4 35 39 1 14 346 337 23 39 81 92 84 79 47 36 28 30 43 65 101 117 130 105 78 83 69 50 25 5 350 343 344 347 335 318 303 293 291 292 293 295 296 295 295 297 298 299 300 301 302 303
351 355 1 18 74 19 357 355 38 65 80 70 78 102 113 111 57 31 25 26 43 66 88 88 80 63 29 31 37 32 33 19 1 353 339 330 323 314 305 299 296 294 294 295 296 296 297 296 297 297 299 300 302 302
347 7 360 5 344 9 20 17 33 68 62 58 43 60 68 73 63 19 15 25 39 66 68 65 59 47 39 45 65 73 51 13 357 345 333 324 314 307 301 296 293 292 292 291 292 293 293 294 295 297 299 300 302 303
336 353 353 327 335 21 0 353 29 70 60 59 41 47 53 68 78 17 16 37 51 62 68 71 69 62 57 48 8 344 336 330 323 318 315 313 310 308 304 301 298 296 294 291 290 291 292 293 293 294 295 295 296 297